Home   Weather   Palm Springs   Past weeks

Flag for USA Past Weather in Palm Springs, California, USA — Yesterday and Last 2 Weeks

Now
70 °F

Clear.


Feels Like: 77 °F
Forecast: 66 / 96 °F
Wind: 3 mph from Northwest

Location: Palm Springs Regional Airport

Current Time: Apr 26, 2017 at 2:59:59 am

Latest Report: Apr 26, 2017 at 1:53 am


Visibility: 10 mi

Pressure: 29.82 "Hg

Humidity: 41%

Dew Point: 45 °F

Location of Palm SpringsLocation

Past Weather in Palm Springs — Graph

°F

Palm Springs Temperature Yesterday

Maximum temperature yesterday: 83 °F (at 3:53 pm)
Minimum temperature yesterday: 67 °F (at 5:53 am)
Average temperature yesterday: 75 °F

High & Low Weather Summary for the Past Weeks

 TemperatureHumidityPressure
High99 °F (Apr 22, 3:53 pm)63% (Apr 18, 5:53 am)30.05 "Hg (Apr 18, 5:53 am)
Low61 °F (Apr 11, 4:53 am)6% (Apr 11, 4:53 pm)29.62 "Hg (Apr 25, 12:53 am)
Average79 °F27%29.86 "Hg
* Reported Apr 11 1:53 am — Apr 26 1:53 am, Palm Springs, Weather by CustomWeather, © 2017

Note: Actual official high and low records may vary slightly from our data, if they occured in-between our weather recording intervals... More about our weather records

Advertising

Palm Springs Weather History for the Previous 24 Hours

Scroll right to see more
 ConditionsComfort  
Time TempWeatherWind HumidityBarometerVisibility
1:53 am
Wed, Apr 26
70 °FClear.3 mph41%29.82 "Hg10 mi
12:53 am72 °FClear.7 mph34%29.83 "Hg10 mi
11:53 pm
Tue, Apr 25
73 °FClear.9 mph37%29.83 "Hg10 mi
10:53 pm74 °FClear.16 mph36%29.83 "Hg10 mi
9:53 pm74 °FClear.17 mph36%29.81 "Hg10 mi
8:53 pm76 °FClear.20 mph32%29.79 "Hg10 mi
7:53 pm77 °FClear.22 mph32%29.76 "Hg10 mi
6:53 pm79 °FSunny.15 mph29%29.75 "Hg10 mi
5:53 pm81 °FSunny.21 mph26%29.74 "Hg10 mi
4:53 pm82 °FSunny.15 mph26%29.74 "Hg10 mi
3:53 pm83 °FSunny.15 mph26%29.75 "Hg10 mi
2:53 pm79 °FSunny.23 mph29%29.77 "Hg10 mi
1:53 pm81 °FSunny.22 mph26%29.77 "Hg10 mi
12:53 pm82 °FSunny.22 mph25%29.79 "Hg10 mi
11:53 am81 °FSunny.22 mph25%29.78 "Hg10 mi
10:53 am79 °FSunny.16 mph26%29.78 "Hg10 mi
9:53 am77 °FSunny.22 mph29%29.76 "Hg10 mi
8:53 am74 °FSunny.17 mph33%29.76 "Hg10 mi
7:53 am70 °FSunny.12 mph39%29.75 "Hg10 mi
6:53 am68 °FSunny.15 mph40%29.70 "Hg10 mi
5:53 am67 °FClear.10 mph44%29.67 "Hg10 mi
4:53 am69 °FClear.12 mph39%29.65 "Hg10 mi
3:53 am69 °FClear.23 mph39%29.63 "Hg10 mi
2:53 am71 °FClear.5 mph34%29.63 "Hg10 mi
Weather by CustomWeather, © 2017

See weather overviewHow to use our weather pages